Tracking 17884 objects as of 3-December-2016
HD Live streaming from Space Station
objects crossing your sky now

SL-3 DEB

Track SL-3 DEB now!
10-day predictions


NORAD ID: 14928
Int'l Code: 1983-075F
Perigee: 514.7 km
Apogee: 560.6 km
Inclination: 97.9 °
Period: 95.2 minutes
Semi major axis: 6908 km
RCS: 0.0341 m2 (small)
Launch date: July 24, 1983
Source: Commonwealth of Independent States (former USSR) (CIS)
Launch site: TYURATAM MISSILE AND SPACE COMPLEX (TTMTR)

Note: This is SATELLITE DEBRIS
Your satellite tracking list
Your tracking list is empty





NASA's NSSDC Master Catalog

Two Line Element Set (TLE):
1 14928U 83075F   16338.39949804  .00000684  00000-0  43657-4 0  9991
2 14928  97.8596 115.8241 0033203 163.6172 259.5199 15.11868173790792
Source of the keplerian elements: AFSPC